Change the Weather History Date:

Tuesday, December 31, 2013

  Actual Average Record
Temperature  
Mean Temperature 51 °F -  
Max Temperature 56 °F 64 °F 80 °F (1984)
Min Temperature 46 °F 44 °F 20 °F (1983)
Degree Days  
Heating Degree Days 14    
Growing Degree Days 1 (Base 50)    
Moisture  
Dew Point 47 °F    
Average Humidity 83    
Maximum Humidity 99    
Minimum Humidity 66    
Precipitation  
Precipitation 0.00 in - - ()
Sea Level Pressure  
Sea Level Pressure 30.30 in    
Wind  
Wind Speed 5 mph (NW)    
Max Wind Speed 9 mph    
Max Gust Speed -    
Visibility 10 miles    
Events      
Averages and records for this station are not official NWS values.
T = Trace of Precipitation, MM = Missing Value Source: NWS Daily Summary

Daily Weather History Graph

Daily Weather History Graph

Search for Another Location

Airport or City:

Trip Planner

Search our weather history database for the weather conditions in past years. The results will help you decide how hot, cold, wet, or windy it might be!

Date:

Astronomy

Dec. 31, 2013 Rise Set
Actual Time 7:26 AM EST 5:32 PM EST
Civil Twilight 6:59 AM EST 5:59 PM EST
Nautical Twilight 6:29 AM EST 6:29 PM EST
Astronomical Twilight 5:59 AM EST 6:59 PM EST
Moon 6:20 AM EST (12/31) 5:04 PM EST (12/31)
Length of Visible Light 11h 00m
Length of Day
10h 06m
Waning Crescent, 1% of the Moon is Illuminated
Dec 31
Waning Crescent
Jan 1
New
Jan 7
First Quarter
Jan 15
Full
Jan 24
Last Quarter

Hourly Weather History & Observations

Time (EST) Temp. Dew Point Humidity Pressure Visibility Wind Dir Wind Speed Gust Speed Precip Events Conditions
12:58 AM 53.1 °F 49.1 °F 86% 30.20 in 10.0 mi West 5.8 mph - N/A   Mostly Cloudy
1:58 AM 52.9 °F 48.9 °F 86% 30.20 in 10.0 mi West 4.6 mph - N/A   Mostly Cloudy
2:58 AM 53.2 °F 48.2 °F 83% 30.21 in 10.0 mi West 5.8 mph - N/A   Mostly Cloudy
3:58 AM 52.9 °F 48.4 °F 85% 30.23 in 10.0 mi West 5.8 mph - N/A   Scattered Clouds
4:58 AM 53.1 °F 48.0 °F 83% 30.24 in 10.0 mi West 5.8 mph - N/A   Mostly Cloudy
5:58 AM 52.5 °F 47.8 °F 84% 30.24 in 10.0 mi West 4.6 mph - N/A   Partly Cloudy
6:58 AM 52.0 °F 47.7 °F 85% 30.27 in 10.0 mi West 4.6 mph - N/A   Partly Cloudy
7:58 AM 51.3 °F 48.2 °F 89% 30.27 in 10.0 mi West 2.3 mph - N/A   Partly Cloudy
8:58 AM 51.4 °F 48.9 °F 91% 30.30 in 10.0 mi NNW 1.2 mph - N/A   Mostly Cloudy
9:58 AM 52.5 °F 48.2 °F 85% 30.33 in 10.0 mi NW 9.2 mph - N/A   Mostly Cloudy
10:58 AM 53.6 °F 46.4 °F 77% 30.33 in 10.0 mi NW 6.9 mph - N/A   Overcast
11:58 AM 54.9 °F 46.4 °F 73% 30.33 in 10.0 mi West 4.6 mph - N/A   Overcast
12:58 PM 55.9 °F 45.9 °F 69% 30.30 in 10.0 mi WNW 8.1 mph - N/A   Overcast
1:58 PM 56.7 °F 46.4 °F 69% 30.29 in 10.0 mi NW 5.8 mph - N/A   Mostly Cloudy
2:58 PM 56.1 °F 45.0 °F 66% 30.27 in 10.0 mi North 6.9 mph - N/A   Mostly Cloudy
3:58 PM 55.0 °F 45.3 °F 70% 30.29 in 10.0 mi NW 4.6 mph - N/A   Mostly Cloudy
4:58 PM 53.8 °F 45.7 °F 74% 30.30 in 10.0 mi North 2.3 mph - N/A   Mostly Cloudy
5:58 PM 51.1 °F 46.4 °F 84% 30.32 in 10.0 mi Calm Calm - N/A   Overcast
6:58 PM 49.6 °F 47.1 °F 91% 30.34 in 10.0 mi Calm Calm - N/A   Scattered Clouds
7:58 PM 48.4 °F 47.3 °F 96% 30.37 in 10.0 mi NW 2.3 mph - N/A   Mostly Cloudy
8:58 PM 47.3 °F 46.9 °F 99% 30.37 in 10.0 mi NNW 3.5 mph - N/A   Scattered Clouds
9:58 PM 47.7 °F 46.2 °F 95% 30.37 in 10.0 mi Calm Calm - N/A   Overcast
10:58 PM 46.9 °F 45.1 °F 93% 30.37 in 10.0 mi NNE 2.3 mph - N/A   Overcast
11:58 PM 46.9 °F 43.2 °F 87% 30.35 in 10.0 mi NNE 4.6 mph - N/A   Overcast